Location: Gulgong NSW 2852, Australia
(32.2976°S, 149.5548°E)
Time: 00:38:53
(UTC+11:00)

X-37B - Pass Details

Date: 11 December 2021
Orbit: 334 x 337 km, 45.0° (Epoch: 11 January)

Event Time Altitude Azimuth Distance (km) Brightness Sun altitude
Exits shadow 04:21:55 41° 354° (N) 505 0.8 -15.8°
Maximum altitude 04:22:30 51° 38° (NE) 436 0.7 -15.7°
Drops below altitude 10° 04:25:20 10° 115° (ESE) 1,292 4.5 -15.3°
Sets 04:27:23 0° 120° (ESE) 2,138 6.1 -15.0°
